Time,TemperatureF,DewpointF,PressureIn,WindDirection,WindDirectionDegrees,WindSpeedMPH,WindSpeedGustMPH,Humidity,HourlyPrecipIn,Conditions,Clouds,dailyrainin,SolarRadiationWatts/m^2,SoftwareType,DateUTC
2013-05-09 00:02:00,45.0,-99.9,-100.00,East,80,3.0,6.0,-999,0.00,,,0.23,0.000000,,2013-05-09 07:02:00,
2013-05-09 00:12:00,45.0,-99.9,-100.00,East,80,3.0,6.0,-999,0.00,,,0.23,0.000000,,2013-05-09 07:12:00,
2013-05-09 00:22:00,45.0,-99.9,-100.00,East,80,3.0,6.0,-999,0.00,,,0.23,0.000000,,2013-05-09 07:22:00,
2013-05-09 00:43:00,44.0,-99.9,-100.00,NNW,338,2.0,6.0,-999,0.00,,,0.18,0.000000,,2013-05-09 07:43:00,
2013-05-09 00:52:00,44.0,-99.9,-100.00,NNW,338,2.0,6.0,-999,0.00,,,0.18,0.000000,,2013-05-09 07:52:00,
2013-05-09 01:02:00,44.0,-99.9,-100.00,NNW,338,2.0,6.0,-999,0.00,,,0.18,0.000000,,2013-05-09 08:02:00,
2013-05-09 01:11:00,44.0,-99.9,-100.00,NNW,338,2.0,6.0,-999,0.00,,,0.18,0.000000,,2013-05-09 08:11:00,
2013-05-09 01:22:00,44.0,-99.9,-100.00,NNW,338,2.0,6.0,-999,0.00,,,0.18,0.000000,,2013-05-09 08:22:00,
2013-05-09 01:42:00,43.0,-99.9,-100.00,NNE,26,1.0,6.0,-999,0.00,,,0.12,0.000000,,2013-05-09 08:42:00,
2013-05-09 01:52:00,43.0,-99.9,-100.00,NNE,26,1.0,6.0,-999,0.00,,,0.12,0.000000,,2013-05-09 08:52:00,
2013-05-09 02:02:00,43.0,-99.9,-100.00,NNE,26,1.0,6.0,-999,0.00,,,0.12,0.000000,,2013-05-09 09:02:00,
2013-05-09 02:12:00,43.0,-99.9,-100.00,NNE,26,1.0,6.0,-999,0.00,,,0.12,0.000000,,2013-05-09 09:12:00,
2013-05-09 02:22:00,43.0,-99.9,-100.00,NNE,26,1.0,6.0,-999,0.00,,,0.12,0.000000,,2013-05-09 09:22:00,
2013-05-09 02:23:00,42.0,-99.9,-100.00,NE,41,2.0,5.0,-999,0.00,,,0.08,0.000000,,2013-05-09 09:23:00,
2013-05-09 02:43:00,42.0,-99.9,-100.00,NE,41,2.0,5.0,-999,0.00,,,0.08,0.000000,,2013-05-09 09:43:00,
2013-05-09 02:53:00,42.0,-99.9,-100.00,NE,41,2.0,5.0,-999,0.00,,,0.08,0.000000,,2013-05-09 09:53:00,
2013-05-09 03:02:00,42.0,-99.9,-100.00,NE,41,2.0,5.0,-999,0.00,,,0.08,0.000000,,2013-05-09 10:02:00,
2013-05-09 03:12:00,42.0,-99.9,-100.00,NE,41,2.0,5.0,-999,0.00,,,0.08,0.000000,,2013-05-09 10:12:00,
2013-05-09 03:42:00,45.0,42.0,-100.00,ENE,66,5.0,8.0,90,0.00,,,0.06,0.000000,,2013-05-09 10:42:00,
2013-05-09 03:52:00,45.0,42.0,-100.00,ENE,66,5.0,8.0,90,0.00,,,0.06,0.000000,,2013-05-09 10:52:00,
2013-05-09 04:02:00,45.0,42.0,-100.00,ENE,66,5.0,8.0,90,0.00,,,0.06,0.000000,,2013-05-09 11:02:00,
2013-05-09 04:12:00,45.0,42.0,-100.00,ENE,66,5.0,8.0,90,0.00,,,0.06,0.000000,,2013-05-09 11:12:00,
2013-05-09 04:22:00,45.0,42.0,-100.00,ENE,66,5.0,8.0,90,0.00,,,0.06,0.000000,,2013-05-09 11:22:00,
2013-05-09 04:42:00,46.0,40.0,-100.00,NE,38,2.0,9.0,79,0.00,,,0.06,0.000000,,2013-05-09 11:42:00,
2013-05-09 05:42:00,45.0,40.0,-100.00,ENE,57,2.0,4.0,81,-99.99,,,0.05,0.000000,,2013-05-09 12:42:00,
2013-05-09 06:42:00,46.0,38.0,-100.00,East,90,1.0,5.0,73,-99.99,,,0.05,6.000000,,2013-05-09 13:42:00,
2013-05-09 07:42:00,51.0,41.0,-100.00,West,261,3.0,4.0,68,-99.99,,,0.05,168.000000,,2013-05-09 14:42:00,
2013-05-09 08:43:00,60.0,48.0,-100.00,ESE,116,2.0,5.0,64,-99.99,,,0.05,455.000000,,2013-05-09 15:43:00,
2013-05-09 09:42:00,61.0,44.0,-100.00,ESE,115,3.0,8.0,54,-99.99,,,0.05,733.000000,,2013-05-09 16:42:00,
2013-05-09 10:12:00,61.0,44.0,-100.00,ESE,115,3.0,8.0,54,-99.99,,,0.05,733.000000,,2013-05-09 17:12:00,
2013-05-09 10:21:00,61.0,44.0,-100.00,ESE,115,3.0,8.0,54,-99.99,,,0.05,733.000000,,2013-05-09 17:21:00,
2013-05-09 10:42:00,64.0,48.0,-100.00,East,98,3.0,9.0,57,0.00,,,0.05,976.000000,,2013-05-09 17:42:00,
2013-05-09 10:55:00,64.0,48.0,-100.00,East,98,3.0,9.0,57,0.00,,,0.05,976.000000,,2013-05-09 17:55:00,
2013-05-09 11:01:00,64.0,48.0,-100.00,East,98,3.0,9.0,57,0.00,,,0.05,976.000000,,2013-05-09 18:01:00,
2013-05-09 11:21:00,64.0,48.0,-100.00,East,98,3.0,9.0,57,0.00,,,0.05,976.000000,,2013-05-09 18:21:00,
2013-05-09 11:52:00,64.0,53.0,-100.00,ESE,104,2.0,10.0,67,-99.99,,,0.03,817.000000,,2013-05-09 18:52:00,
2013-05-09 12:11:00,64.0,53.0,-100.00,ESE,104,2.0,10.0,67,-99.99,,,0.03,817.000000,,2013-05-09 19:11:00,
2013-05-09 12:21:00,64.0,53.0,-100.00,ESE,104,2.0,10.0,67,-99.99,,,0.03,817.000000,,2013-05-09 19:21:00,
2013-05-09 12:42:00,60.0,51.0,-100.00,East,99,5.0,11.0,72,0.00,,,0.01,420.000000,,2013-05-09 19:42:00,
2013-05-09 12:52:00,60.0,51.0,-100.00,East,99,5.0,11.0,72,0.00,,,0.01,420.000000,,2013-05-09 19:52:00,
2013-05-09 13:01:00,60.0,51.0,-100.00,East,99,5.0,11.0,72,0.00,,,0.01,420.000000,,2013-05-09 20:01:00,
2013-05-09 13:11:00,60.0,51.0,-100.00,East,99,5.0,11.0,72,0.00,,,0.01,420.000000,,2013-05-09 20:11:00,
2013-05-09 13:21:00,60.0,51.0,-100.00,East,99,5.0,11.0,72,0.00,,,0.01,420.000000,,2013-05-09 20:21:00,
2013-05-09 13:42:00,59.0,51.0,-100.00,WSW,251,6.0,17.0,75,0.00,,,0.01,726.000000,,2013-05-09 20:42:00,
2013-05-09 13:52:00,59.0,51.0,-100.00,WSW,251,6.0,17.0,75,0.00,,,0.01,726.000000,,2013-05-09 20:52:00,
2013-05-09 14:01:00,59.0,51.0,-100.00,WSW,251,6.0,17.0,75,0.00,,,0.01,726.000000,,2013-05-09 21:01:00,
2013-05-09 14:11:00,59.0,51.0,-100.00,WSW,251,6.0,17.0,75,0.00,,,0.01,726.000000,,2013-05-09 21:11:00,
2013-05-09 14:22:00,59.0,51.0,-100.00,WSW,251,6.0,17.0,75,0.00,,,0.01,726.000000,,2013-05-09 21:22:00,
2013-05-09 14:43:00,60.0,52.0,-100.00,West,259,12.0,19.0,75,0.00,,,0.01,937.000000,,2013-05-09 21:43:00,
2013-05-09 14:53:00,60.0,52.0,-100.00,West,259,12.0,19.0,75,0.00,,,0.01,937.000000,,2013-05-09 21:53:00,
2013-05-09 15:03:00,60.0,52.0,-100.00,West,259,12.0,19.0,75,0.00,,,0.01,937.000000,,2013-05-09 22:03:00,
2013-05-09 15:12:00,60.0,52.0,-100.00,West,259,12.0,19.0,75,0.00,,,0.01,937.000000,,2013-05-09 22:12:00,
2013-05-09 15:22:00,60.0,52.0,-100.00,West,259,12.0,19.0,75,0.00,,,0.01,937.000000,,2013-05-09 22:22:00,
2013-05-09 15:42:00,62.0,54.0,-100.00,WSW,254,10.0,20.0,76,0.00,,,0.01,1094.000000,,2013-05-09 22:42:00,
2013-05-09 15:52:00,62.0,54.0,-100.00,WSW,254,10.0,20.0,76,0.00,,,0.01,1094.000000,,2013-05-09 22:52:00,
2013-05-09 16:02:00,62.0,54.0,-100.00,WSW,254,10.0,20.0,76,0.00,,,0.01,1094.000000,,2013-05-09 23:02:00,
2013-05-09 16:11:00,62.0,54.0,-100.00,WSW,254,10.0,20.0,76,0.00,,,0.01,1094.000000,,2013-05-09 23:11:00,
2013-05-09 16:21:00,62.0,54.0,-100.00,WSW,254,10.0,20.0,76,0.00,,,0.01,1094.000000,,2013-05-09 23:21:00,
2013-05-09 16:42:00,59.0,53.0,-100.00,WSW,243,10.0,21.0,81,0.00,,,0.01,682.000000,,2013-05-09 23:42:00,
2013-05-09 16:52:00,59.0,53.0,-100.00,WSW,243,10.0,21.0,81,0.00,,,0.01,682.000000,,2013-05-09 23:52:00,
2013-05-09 17:01:00,59.0,53.0,-100.00,WSW,243,10.0,21.0,81,0.00,,,0.01,682.000000,,2013-05-10 00:01:00,
2013-05-09 17:11:00,59.0,53.0,-100.00,WSW,243,10.0,21.0,81,0.00,,,0.01,682.000000,,2013-05-10 00:11:00,
2013-05-09 17:21:00,59.0,53.0,-100.00,WSW,243,10.0,21.0,81,0.00,,,0.01,682.000000,,2013-05-10 00:21:00,
2013-05-09 17:42:00,58.0,52.0,-100.00,SW,215,4.0,20.0,79,0.00,,,0.00,525.000000,,2013-05-10 00:42:00,
2013-05-09 17:52:00,58.0,52.0,-100.00,SW,215,4.0,20.0,79,0.00,,,0.00,525.000000,,2013-05-10 00:52:00,
2013-05-09 18:01:00,58.0,52.0,-100.00,SW,215,4.0,20.0,79,0.00,,,0.00,525.000000,,2013-05-10 01:01:00,
2013-05-09 18:11:00,58.0,52.0,-100.00,SW,215,4.0,20.0,79,0.00,,,0.00,525.000000,,2013-05-10 01:11:00,
2013-05-09 18:21:00,58.0,52.0,-100.00,SW,215,4.0,20.0,79,0.00,,,0.00,525.000000,,2013-05-10 01:21:00,
2013-05-09 18:42:00,55.0,52.0,-100.00,South,169,2.0,14.0,88,0.00,,,0.00,55.000000,,2013-05-10 01:42:00,
2013-05-09 18:52:00,55.0,52.0,-100.00,South,169,2.0,14.0,88,0.00,,,0.00,55.000000,,2013-05-10 01:52:00,
2013-05-09 19:01:00,55.0,52.0,-100.00,South,169,2.0,14.0,88,0.00,,,0.00,55.000000,,2013-05-10 02:01:00,
2013-05-09 19:11:00,55.0,52.0,-100.00,South,169,2.0,14.0,88,0.00,,,0.00,55.000000,,2013-05-10 02:11:00,
2013-05-09 19:21:00,55.0,52.0,-100.00,South,169,2.0,14.0,88,0.00,,,0.00,55.000000,,2013-05-10 02:21:00,
2013-05-09 19:42:00,54.0,51.0,-100.00,NE,44,3.0,6.0,90,0.00,,,0.00,48.000000,,2013-05-10 02:42:00,
2013-05-09 19:52:00,54.0,51.0,-100.00,NE,44,3.0,6.0,90,0.00,,,0.00,48.000000,,2013-05-10 02:52:00,
2013-05-09 20:01:00,54.0,51.0,-100.00,NE,44,3.0,6.0,90,0.00,,,0.00,48.000000,,2013-05-10 03:01:00,
2013-05-09 20:11:00,54.0,51.0,-100.00,NE,44,3.0,6.0,90,0.00,,,0.00,48.000000,,2013-05-10 03:11:00,
2013-05-09 20:21:00,54.0,51.0,-100.00,NE,44,3.0,6.0,90,0.00,,,0.00,48.000000,,2013-05-10 03:21:00,
2013-05-09 20:43:00,51.0,50.0,-100.00,NE,55,3.0,6.0,98,0.00,,,0.00,12.000000,,2013-05-10 03:43:00,
2013-05-09 20:53:00,51.0,50.0,-100.00,NE,55,3.0,6.0,98,0.00,,,0.00,12.000000,,2013-05-10 03:53:00,
2013-05-09 21:03:00,51.0,50.0,-100.00,NE,55,3.0,6.0,98,0.00,,,0.00,12.000000,,2013-05-10 04:03:00,
2013-05-09 21:12:00,51.0,50.0,-100.00,NE,55,3.0,6.0,98,0.00,,,0.00,12.000000,,2013-05-10 04:12:00,
2013-05-09 21:22:00,51.0,50.0,-100.00,NE,55,3.0,6.0,98,0.00,,,0.00,12.000000,,2013-05-10 04:22:00,
2013-05-09 21:43:00,52.0,49.0,-100.00,NNE,30,4.0,8.0,91,0.00,,,0.00,0.000000,,2013-05-10 04:43:00,
2013-05-09 21:53:00,52.0,49.0,-100.00,NNE,30,4.0,8.0,91,0.00,,,0.00,0.000000,,2013-05-10 04:53:00,
2013-05-09 22:02:00,52.0,49.0,-100.00,NNE,30,4.0,8.0,91,0.00,,,0.00,0.000000,,2013-05-10 05:02:00,
2013-05-09 22:12:00,52.0,49.0,-100.00,NNE,30,4.0,8.0,91,0.00,,,0.00,0.000000,,2013-05-10 05:12:00,
2013-05-09 22:21:00,52.0,49.0,-100.00,NNE,30,4.0,8.0,91,0.00,,,0.00,0.000000,,2013-05-10 05:21:00,
2013-05-09 22:42:00,51.0,49.0,-100.00,SW,225,2.0,7.0,92,0.00,,,0.00,0.000000,,2013-05-10 05:42:00,
2013-05-09 22:52:00,51.0,49.0,-100.00,SW,225,2.0,7.0,92,0.00,,,0.00,0.000000,,2013-05-10 05:52:00,
2013-05-09 23:01:00,51.0,49.0,-100.00,SW,225,2.0,7.0,92,0.00,,,0.00,0.000000,,2013-05-10 06:01:00,
2013-05-09 23:12:00,51.0,49.0,-100.00,SW,225,2.0,7.0,92,0.00,,,0.00,0.000000,,2013-05-10 06:12:00,
2013-05-09 23:21:00,51.0,49.0,-100.00,SW,225,2.0,7.0,92,0.00,,,0.00,0.000000,,2013-05-10 06:21:00,
2013-05-09 23:42:00,51.0,48.0,-100.00,West,269,5.0,8.0,89,0.00,,,-99.99,0.000000,,2013-05-10 06:42:00,
2013-05-09 23:52:00,51.0,48.0,-100.00,West,269,5.0,8.0,89,0.00,,,-99.99,0.000000,,2013-05-10 06:52:00,